Simultaneous Nadir Overpasses (SNOs) Predictions

Prediction of SNOs between AQUA and NPP Satellite Orbit:

Table of predicted SNOs for the next 14.0 days since TLE Epoch: 1/29/2022
Index Date (AQUA) Time (AQUA) Lat,Lon (AQUA) SZA (AQUA ) Date (NPP) Time (NPP) Lat,Lon (NPP) SZA (NPP ) Distance(km) Time Diff (sec)
1 01/30/2022 14:05:40 -76.39, 29.18 65.48 01/30/2022 14:04:42 -76.39, 29.26 65.44 2.09 58
2 01/30/2022 14:54:46 77.31,-159.85 113.44 01/30/2022 14:55:05 77.31,-159.75 113.40 2.73 19
3 02/02/2022 06:22:04 -76.53, 145.54 66.36 02/02/2022 06:21:30 -76.53, 145.53 66.33 0.29 34
4 02/02/2022 07:11:10 77.44, -43.42 112.56 02/02/2022 07:11:53 77.44, -43.41 112.52 0.42 43
5 02/04/2022 22:38:25 -76.80, -97.62 67.43 02/04/2022 22:38:15 -76.79, -97.67 67.41 1.48 10
6 02/04/2022 23:27:33 77.60, 73.16 111.59 02/04/2022 23:28:40 77.60, 73.13 111.54 0.74 67
7 02/07/2022 14:05:39 76.07,-151.79 112.63 02/07/2022 14:04:36 76.06,-151.87 112.70 2.11 63
8 02/07/2022 14:54:46 -77.05, 19.21 68.53 02/07/2022 14:55:00 -77.05, 19.15 68.53 1.46 14
9 02/10/2022 06:21:55 76.51, -34.45 111.28 02/10/2022 06:21:16 76.51, -34.49 111.33 1.28 39



Historial Predications of SNOs between AQUA and NPP
